EW1979 Weather Reports


Display with metric or nautical units.
time (UTC)temp
F
wind
direction
speed
MPH
gust
MPH
rain 1hr
in
rain 24hr
in
rain mn
in
humidity
%
barometer
mb
20210803120202 71 28 0.0 0.0 0.00 0.00 0.00 100 1013.8
20210803114554 71 29 0.0 0.0 0.00 0.00 0.00 100 1013.7
20210803113044 71 29 0.0 0.0 0.00 0.00 0.00 100 1013.6
20210803111623 71 29 0.0 0.0 0.00 0.00 0.00 100 1013.5
20210803110107 71 29 0.0 0.0 0.00 0.00 0.00 100 1013.4
20210803104542 70 29 0.0 0.0 0.00 0.00 0.00 100 1013.4
20210803103024 70 29 0.0 0.0 0.00 0.00 0.00 100 1013.3
20210803101530 70 29 0.0 0.0 0.00 0.00 0.00 100 1013.3
20210803100012 71 29 0.0 0.0 0.00 0.00 0.00 100 1013.4
20210803094511 71 28 0.0 0.0 0.00 0.00 0.00 100 1013.4
20210803093002 71 29 0.0 0.0 0.00 0.00 0.00 100 1013.4
20210803091643 71 28 0.0 0.0 0.00 0.00 0.00 100 1013.4
20210803090110 71 26 0.0 0.0 0.00 0.00 0.00 100 1013.4
20210803084609 71 36 0.0 0.0 0.00 0.00 0.00 100 1013.1
20210803083150 71 34 0.0 0.0 0.00 0.00 0.00 100 1013.3
20210803081618 71 34 0.0 0.0 0.00 0.00 0.00 100 1013.4
20210803080101 71 35 0.0 0.0 0.00 0.00 0.00 100 1013.5
20210803074632 71 36 0.0 0.0 0.00 0.00 0.00 100 1013.5
20210803073048 71 36 0.0 0.0 0.00 0.00 0.00 100 1013.6
20210803071553 71 36 0.0 0.0 0.00 0.00 0.00 100 1013.4
20210803070103 71 40 0.0 0.0 0.00 0.00 0.00 100 1013.6
20210803064517 71 40 0.0 0.0 0.00 0.00 0.00 100 1013.8
20210803063032 71 40 0.0 0.0 0.00 0.00 0.00 100 1013.9
20210803061507 71 40 0.0 0.0 0.00 0.00 0.00 100 1013.9
20210803054651 71 39 0.0 0.0 0.00 0.00 0.00 100 1014.0
20210803053128 71 38 0.0 0.0 0.00 0.00 0.00 100 1014.0
20210803051637 71 40 0.0 0.0 0.00 0.00 0.00 100 1013.7
20210803050055 71 15 0.0 0.0 0.00 0.00 0.00 100 1013.8
20210803044554 71 26 0.0 0.0 0.00 0.00 0.23 100 1014.0
20210803043150 71 26 0.0 0.0 0.00 0.00 0.23 100 1014.2
20210803041559 71 26 0.0 0.0 0.00 0.00 0.23 100 1014.6
20210803040153 71 26 0.0 0.0 0.00 0.00 0.23 100 1014.6
20210803034613 71 26 0.0 0.0 0.00 0.00 0.23 100 1015.0
20210803033035 71 26 0.0 0.0 0.00 0.00 0.23 100 1015.0
20210803031530 71 26 0.0 0.0 0.00 0.00 0.23 100 1015.0
20210803030012 71 26 0.0 0.0 0.00 0.00 0.23 100 1014.8
20210803024513 71 26 0.0 0.0 0.00 0.00 0.23 100 1014.4
20210803021703 71 26 0.0 0.0 0.00 0.00 0.23 100 1014.0
20210803020137 71 26 0.0 0.0 0.00 0.00 0.23 100 1013.6
20210803014648 71 26 0.0 0.0 0.00 0.00 0.23 100 1013.4
20210803013224 71 26 0.0 0.0 0.00 0.00 0.23 100 1013.3
20210803011612 72 26 0.0 0.0 0.00 0.00 0.23 100 1013.3
20210803010121 71 26 0.0 0.0 0.00 0.00 0.23 100 1013.1
20210803004540 72 26 0.0 0.0 0.00 0.00 0.23 100 1013.1
20210803003114 72 25 0.0 0.0 0.00 0.00 0.23 100 1013.2
20210803001544 72 26 0.0 0.0 0.00 0.00 0.22 100 1013.2
20210803000029 72 34 0.0 0.0 0.00 0.00 0.22 100 1013.0
20210802234541 72 26 0.0 0.0 0.00 0.00 0.22 100 1013.1
20210802233019 72 11 0.0 0.0 0.00 0.00 0.22 100 1013.3
20210802231503 72 9 0.0 0.0 0.00 0.00 0.21 100 1013.6
20210802230227 72 5 0.0 0.0 0.00 0.00 0.20 100 1013.7
20210802224746 73 5 0.0 0.0 0.00 0.00 0.18 100 1013.5
20210802223113 73 11 0.0 0.0 0.00 0.00 0.17 100 1013.6
20210802221619 73 330 0.0 0.0 0.00 0.00 0.16 100 1013.5
20210802220116 74 360 0.0 0.0 0.00 0.00 0.15 100 1013.5
20210802214632 75 343 0.0 0.0 0.00 0.00 0.15 12 1013.2
20210802213058 76 355 0.0 0.0 0.00 0.00 0.14 24 1013.0
20210802211558 77 300 0.0 0.0 0.00 0.00 0.14 29 1012.6
20210802210119 78 304 0.0 0.0 0.00 0.00 0.14 36 1012.0
20210802204530 80 355 0.0 0.0 0.00 0.00 0.14 48 1012.4
20210802203045 80 237 0.0 0.0 0.00 0.00 0.14 51 1012.1
20210802201521 81 227 0.0 0.0 0.00 0.00 0.14 52 1012.3
20210802200006 83 224 0.0 0.0 0.00 0.00 0.14 51 1012.6
20210802194501 82 162 0.0 0.0 0.00 0.00 0.14 49 1012.4
20210802193219 81 186 1.0 0.0 0.00 0.00 0.14 44 1013.0
20210802191622 81 202 1.0 0.0 0.00 0.00 0.14 49 1013.0
20210802190130 81 224 0.0 0.0 0.00 0.00 0.14 47 1013.6
20210802183057 80 186 2.0 0.0 0.00 0.00 0.14 20 1014.3
20210802181628 80 202 0.0 0.0 0.00 0.00 0.14 16 1014.6
20210802180055 80 201 0.0 0.0 0.00 0.00 0.14 13 1014.8
20210802174546 80 197 1.0 0.0 0.00 0.00 0.14 20 1014.8
20210802173027 80 288 1.0 0.0 0.00 0.00 0.14 27 1014.8
20210802171542 79 298 1.0 0.0 0.00 0.00 0.14 14 1015.1
20210802170056 77 296 0.0 0.0 0.00 0.00 0.14 100 1015.3
20210802164517 76 296 0.0 0.0 0.00 0.00 0.14 100 1015.5
20210802163012 75 300 1.0 0.0 0.00 0.00 0.14 100 1015.5
20210802161727 74 36 0.0 0.0 0.00 0.00 0.14 100 1015.6
20210802160146 72 87 0.0 0.0 0.00 0.00 0.14 100 1015.5
20210802154615 72 104 0.0 0.0 0.00 0.00 0.14 100 1015.5
20210802153118 71 187 0.0 0.0 0.00 0.00 0.14 100 1015.7
20210802151623 71 187 0.0 0.0 0.00 0.00 0.14 100 1015.8
20210802150101 70 187 0.0 0.0 0.00 0.00 0.14 100 1015.9
20210802144548 69 187 0.0 0.0 0.00 0.00 0.14 100 1015.8
20210802143044 69 187 0.0 0.0 0.00 0.00 0.14 100 1016.2
20210802141531 69 187 0.0 0.0 0.00 0.00 0.14 100 1016.4
20210802140039 69 181 0.0 0.0 0.00 0.00 0.14 100 1016.4
20210802134524 69 183 0.0 0.0 0.00 0.00 0.14 100 1016.7
20210802133012 69 193 0.0 0.0 0.00 0.00 0.14 100 1016.8
20210802131512 69 193 0.0 0.0 0.00 0.00 0.14 100 1016.4
20210802130003 69 169 0.0 0.0 0.00 0.00 0.13 100 1016.0
20210802124758 70 283 1.0 0.0 0.00 0.00 0.13 100 1015.3
20210802123106 71 248 4.0 0.0 0.00 0.00 0.10 100 1014.7
20210802121632 72 246 0.0 0.0 0.00 0.00 0.00 100 1015.3